This is the latest recevied weather packets stored in our database for station/object KB3KBR-WX. If no packets are shown the sender has not sent any weather packets the latest 10 day(s).
| Time | Temp. | Humidity | Pressure | Rain* | Wind** | Luminosity | Snow |
|---|---|---|---|---|---|---|---|
| 1788037591 | 26.11° C | 48% | 1020.1 hPa | 0 mm | - | - | - |
| 1788037261 | 26.67° C | 47% | 1020.1 hPa | 0 mm | - | - | - |
| 1788036961 | 26.67° C | 46% | 1020.1 hPa | 0 mm | - | - | - |
| 1788036631 | 27.22° C | 43% | 1020 hPa | 0 mm | - | - | - |
| 1788036304 | 27.78° C | 45% | 1020.1 hPa | 0 mm | - | - | - |
| 1788036001 | 27.22° C | 45% | 1020.2 hPa | 0 mm | - | - | - |
| 1788035701 | 26.67° C | 46% | 1020.1 hPa | 0 mm | - | - | - |
| 1788035371 | 26.67° C | 50% | 1020.1 hPa | 0 mm | - | - | - |
| 1788035071 | 26.67° C | 47% | 1020.2 hPa | 0 mm | - | - | - |
| 1788034771 | 26.67° C | 45% | 1020.3 hPa | 0 mm | - | - | - |
| 1788034471 | 26.11° C | 45% | 1020.2 hPa | 0 mm | - | - | - |
| 1788034141 | 26.11° C | 46% | 1020.3 hPa | 0 mm | - | - | - |
| 1788033841 | 26.67° C | 47% | 1020.3 hPa | 0 mm | - | - | - |
| 1788033512 | 26.67° C | 45% | 1020.5 hPa | 0 mm | - | - | - |
| 1788033211 | 26.67° C | 47% | 1020.5 hPa | 0 mm | - | - | - |
| 1788032913 | 26.11° C | 44% | 1020.6 hPa | 0 mm | - | - | - |
| 1788032581 | 26.11° C | 49% | 1020.7 hPa | 0 mm | - | - | - |
| 1788032281 | 26.11° C | 51% | 1020.8 hPa | 0 mm | - | - | - |
| 1788031951 | 26.11° C | 49% | 1020.8 hPa | 0 mm | - | - | - |
| 1788031651 | 26.11° C | 49% | 1021 hPa | 0 mm | - | - | - |
| 1788031321 | 26.11° C | 49% | 1021 hPa | 0 mm | - | - | - |
| 1788030991 | 26.11° C | 51% | 1020.9 hPa | 0 mm | - | - | - |
| 1788030691 | 26.11° C | 50% | 1020.7 hPa | 0 mm | - | - | - |
| 1788030361 | 26.11° C | 48% | 1020.8 hPa | 0 mm | - | - | - |
| 1788030031 | 26.11° C | 48% | 1020.9 hPa | 0 mm | - | - | - |
* Rain latest hour (hover to see other rain measurements)
** Current wind speed in m/s (hover to see current wind gust speed)